Location: Proctor
(47.8934°N, 114.3048°W)
Time: 12:42:11
(UTC+00:00)

AO-91 - Pass Details

Date: 30 June 2022
Orbit: 450 x 797 km, 97.7° (Epoch: 12 August)

Event Time Altitude Azimuth Distance (km) Brightness Sun altitude
Rises 07:01:29 0° 6° (N) 2,564 ? -18.4°
Reaches altitude 10° 07:03:41 10° 359° (N) 1,645 ? -18.4°
Maximum altitude 07:06:56 38° 290° (WNW) 717 ? -18.5°
Enters shadow 07:08:14 27° 243° (WSW) 919 ? -18.6°
